Date String (YYYY-MM-DD hh:mm:ss) UTC,Instrument flags,Ambient pressure (hPa),Sample flow (lpm),Bypass flow (lpm),Sample temperature (°C),Ambient temperature (°C),ASC tube jacket temperature (°C),LED temperature (°C),Box temperature (°C),Sample RH (%),Span deviation,Mass concentration (μg/m³),Mass concentration (μg/m³),Mass concentration (μg/m³)
DateTimeUTC,F1_M11,P_M11,Q1_M11,Q2_M11,T1_M11,T2_M11,T3_M11,T4_M11,T5_M11,U1_M11,ZSPAN_M11,X0_M11,X2_M11,X1_M11
2022-12-14 19:00:00,,0816.3,4.97,0.00,22.3,20.9,00.0,31.2,24.1,09.8,0000.0,0012.62,0005.26,0004.53
2022-12-14 19:01:00,,0816.3,5.00,0.00,22.3,20.9,00.0,31.1,24.1,09.9,0000.0,0013.57,0005.28,0004.53
2022-12-14 19:02:00,,0816.3,5.03,0.00,22.3,20.9,00.0,31.1,24.1,09.9,0000.0,0013.64,0005.31,0004.53
2022-12-14 19:03:00,,0816.3,4.97,0.00,22.3,20.9,00.0,31.1,24.1,09.7,0000.0,0013.89,0005.32,0004.53
2022-12-14 19:04:00,,0816.3,5.05,0.00,22.3,20.9,00.0,31.1,24.1,09.7,0000.0,0013.95,0005.34,0004.52
2022-12-14 19:05:00,,0816.2,4.96,0.00,22.3,20.9,00.0,31.1,24.1,09.8,0000.0,0014.04,0005.37,0004.52
2022-12-14 19:06:00,,0816.1,5.05,0.00,22.3,20.9,00.0,31.1,24.1,09.8,0000.0,0014.51,0005.40,0004.51
2022-12-14 19:07:00,,0816.1,4.95,0.00,22.3,20.9,00.0,31.1,24.1,09.8,0000.0,0014.35,0005.39,0004.51
2022-12-14 19:08:00,,0816.1,5.04,0.00,22.3,20.9,00.0,31.1,24.1,09.8,0000.0,0014.66,0005.40,0004.51
2022-12-14 19:09:00,,0816.1,4.98,0.00,22.3,20.8,00.0,31.1,24.1,09.8,0000.0,0014.99,0005.44,0004.50
2022-12-14 19:10:00,,0816.0,5.01,0.00,22.3,20.8,00.0,31.1,24.1,09.8,0000.0,0014.83,0005.48,0004.51
2022-12-14 19:11:00,,0816.1,4.99,0.00,22.3,20.8,00.0,31.1,24.0,09.8,0000.0,0014.91,0005.52,0004.51
2022-12-14 19:12:00,,0816.1,5.00,0.00,22.2,20.7,00.0,31.1,24.0,09.8,0000.0,0014.78,0005.58,0004.51
2022-12-14 19:13:00,,0816.1,5.03,0.00,22.2,20.7,00.0,31.1,24.0,09.9,0000.0,0014.87,0005.59,0004.52
2022-12-14 19:14:00,,0816.1,4.97,0.00,22.2,20.6,00.0,31.1,24.0,10.0,0000.0,0014.82,0005.57,0004.51
2022-12-14 19:15:00,,0816.1,5.05,0.00,22.2,20.7,00.0,31.1,24.0,09.9,0000.0,0014.61,0005.56,0004.53
2022-12-14 19:16:00,,0816.1,4.96,0.00,22.2,21.2,00.0,31.1,24.1,09.9,0000.0,0016.23,0005.62,0004.53
2022-12-14 19:17:00,,0816.1,5.02,0.00,22.3,22.2,00.0,31.1,24.3,09.9,0000.0,0015.90,0005.60,0004.54
2022-12-14 19:18:00,,0816.1,5.02,0.00,22.4,22.4,00.0,31.1,24.4,09.8,0000.0,0016.00,0005.59,0004.53
2022-12-14 19:19:00,,0816.1,4.97,0.00,22.5,22.0,00.0,31.1,24.4,09.8,0000.0,0015.60,0005.60,0004.54
2022-12-14 19:20:00,,0816.1,5.01,0.00,22.5,21.8,00.0,31.2,24.3,09.8,0000.0,0015.37,0005.62,0004.56
2022-12-14 19:21:00,,0816.1,5.00,0.00,22.4,21.6,00.0,31.2,24.3,09.7,0000.0,0015.14,0005.54,0004.54
2022-12-14 19:22:00,,0816.1,5.01,0.00,22.4,21.4,00.0,31.2,24.3,09.5,0000.0,0014.88,0005.49,0004.51
2022-12-14 19:23:00,,0816.2,5.00,0.00,22.4,21.3,00.0,31.2,24.3,09.5,0000.0,0014.20,0005.40,0004.49
2022-12-14 19:24:00,,0816.1,5.00,0.00,22.4,21.2,00.0,31.2,24.3,09.6,0000.0,0013.47,0005.36,0004.49
2022-12-14 19:25:00,,0816.1,5.00,0.00,22.4,21.2,00.0,31.2,24.3,09.6,0000.0,0013.30,0005.36,0004.48
2022-12-14 19:26:00,,0816.2,5.00,0.00,22.4,21.1,00.0,31.2,24.2,09.5,0000.0,0013.36,0005.34,0004.46
2022-12-14 19:27:00,,0816.1,5.00,0.00,22.4,21.1,00.0,31.2,24.2,09.4,0000.0,0011.17,0005.24,0004.43
2022-12-14 19:28:00,,0816.2,5.00,0.00,22.4,21.1,00.0,31.2,24.2,09.5,0000.0,0011.42,0005.23,0004.41
2022-12-14 19:29:00,,0816.2,5.00,0.00,22.4,21.1,00.0,31.2,24.2,09.5,0000.0,0011.24,0005.23,0004.40
2022-12-14 19:30:00,,0816.2,5.00,0.00,22.4,21.1,00.0,31.2,24.2,09.5,0000.0,0011.26,0005.23,0004.39
2022-12-14 19:31:00,,0816.2,5.04,0.00,22.4,21.1,00.0,31.2,24.2,09.5,0000.0,0011.87,0005.18,0004.38
2022-12-14 19:32:00,,0816.1,4.96,0.00,22.4,21.1,00.0,31.2,24.2,09.5,0000.0,0011.99,0005.17,0004.36
2022-12-14 19:33:00,,0816.1,5.05,0.00,22.4,21.1,00.0,31.2,24.2,09.5,0000.0,0011.96,0005.17,0004.36
2022-12-14 19:34:00,,0816.1,4.96,0.00,22.4,21.1,00.0,31.2,24.2,09.5,0000.0,0011.95,0005.20,0004.37
2022-12-14 19:35:00,,0816.1,5.05,0.00,22.4,21.0,00.0,31.2,24.2,09.4,0000.0,0011.97,0005.19,0004.36
2022-12-14 19:36:00,,0816.1,4.95,0.00,22.4,20.9,00.0,31.2,24.2,09.4,0000.0,0012.78,0005.19,0004.36
2022-12-14 19:37:00,,0816.1,5.02,0.00,22.4,20.9,00.0,31.2,24.2,09.5,0000.0,0013.57,0005.21,0004.37
2022-12-14 19:38:00,,0816.1,4.97,0.00,22.4,20.8,00.0,31.2,24.2,09.6,0000.0,0014.11,0005.26,0004.41
2022-12-14 19:39:00,,0816.1,4.99,0.00,22.3,20.8,00.0,31.2,24.1,09.5,0000.0,0013.86,0005.25,0004.43
2022-12-14 19:40:00,,0816.1,5.03,0.00,22.3,20.7,00.0,31.2,24.1,09.5,0000.0,0014.73,0005.29,0004.44
2022-12-14 19:41:00,,0816.1,4.97,0.00,22.3,20.6,00.0,31.2,24.1,09.6,0000.0,0015.80,0005.28,0004.46
2022-12-14 19:42:00,,0816.1,5.06,0.00,22.3,20.6,00.0,31.2,24.0,09.6,0000.0,0015.16,0005.28,0004.47
2022-12-14 19:43:00,,0816.1,4.95,0.00,22.2,20.5,00.0,31.2,24.0,09.8,0000.0,0015.19,0005.35,0004.50
2022-12-14 19:44:00,,0816.1,5.05,0.00,22.2,20.6,00.0,31.1,24.0,09.7,0000.0,0016.53,0005.38,0004.52
2022-12-14 19:45:00,,0816.1,4.95,0.00,22.2,20.6,00.0,31.1,24.0,09.7,0000.0,0016.88,0005.35,0004.54
2022-12-14 19:46:00,,0816.1,5.05,0.00,22.2,20.7,00.0,31.1,24.0,09.8,0000.0,0017.49,0005.34,0004.56
2022-12-14 19:47:00,,0816.0,4.97,0.00,22.2,20.7,00.0,31.1,24.0,09.7,0000.0,0017.42,0005.35,0004.57
2022-12-14 19:48:00,,0816.0,5.06,0.00,22.2,20.6,00.0,31.1,24.0,09.7,0000.0,0016.56,0005.34,0004.58
2022-12-14 19:49:00,,0816.0,4.95,0.00,22.2,20.6,00.0,31.1,24.0,09.7,0000.0,0015.96,0005.31,0004.57
2022-12-14 19:50:00,,0816.1,5.02,0.00,22.2,21.1,00.0,31.1,24.1,09.8,0000.0,0016.82,0005.33,0004.56
2022-12-14 19:51:00,,0816.0,4.97,0.00,22.3,22.0,00.0,31.1,24.3,09.7,0000.0,0016.97,0005.29,0004.56
2022-12-14 19:52:00,,0816.1,5.02,0.00,22.4,22.5,00.0,31.1,24.4,09.7,0000.0,0015.78,0005.27,0004.55
2022-12-14 19:53:00,,0816.1,4.99,0.00,22.4,22.2,00.0,31.1,24.4,09.5,0000.0,0016.57,0005.28,0004.53
2022-12-14 19:54:00,,0816.0,5.00,0.00,22.4,21.9,00.0,31.2,24.4,09.2,0000.0,0017.14,0005.21,0004.49
2022-12-14 19:55:00,,0816.0,5.00,0.00,22.4,21.7,00.0,31.2,24.3,09.4,0000.0,0016.43,0005.20,0004.48
2022-12-14 19:56:00,,0816.0,5.00,0.00,22.4,21.4,00.0,31.2,24.3,09.4,0000.0,0015.91,0005.18,0004.46
2022-12-14 19:57:00,,0816.0,5.00,0.00,22.4,21.3,00.0,31.2,24.3,09.5,0000.0,0015.62,0005.16,0004.44
2022-12-14 19:58:00,,0816.0,5.00,0.00,22.4,21.2,00.0,31.2,24.3,09.5,0000.0,0015.88,0005.16,0004.42
2022-12-14 19:59:00,,0816.0,4.99,0.00,22.4,21.1,00.0,31.2,24.2,09.5,0000.0,0015.99,0005.18,0004.41
